Regional Weather Roundup
Issued by NWS

Home | Current Version | Previous Version | Graphics & Text | Print | Product List | Glossary On
Versions: 1 2 3 4 5 6 7 8 9 10 11 12 13 14 15 16 17 18 19 20 21 22 23 24 25 26 27 28 29 30 31 32 33 34 35 36 37 38 39 40 41 42 43 44 45 46 47 48 49 50
000
ASUS43 KLSX 241459
RWRMO

WEATHER SUMMARY FOR MISSOURI
NATIONAL WEATHER SERVICE SPRINGFIELD MO
1000 AM CDT SAT JUN 24 2017

NOTE: "FAIR" INDICATES FEW OR NO CLOUDS BELOW 12,000 FEET WITH NO
       SIGNIFICANT WEATHER AND/OR OBSTRUCTIONS TO VISIBILITY.
       CURRENT SKY AND/OR WEATHER CONDITIONS ARE NOT AVAILABLE FOR
       CHILLICOTHE AND FARMINGTON.

MOZ001>031-035>038-043-044-053-054-241600-
...NORTHERN AND WESTERN MISSOURI...

CITY           SKY/WX    TMP DP  RH WIND       PRES   REMARKS
KANSAS CTY INT SUNNY     71  47  42 CALM      30.24R
KANSAS C DTWN  SUNNY     73  42  32 VRB6      30.22R
LEE`S SUMMIT   SUNNY     72  45  37 N8        30.24R
ST JOSEPH      SUNNY     70  46  42 VRB5      30.22R
CHILLICOTHE      N/A     71  42  35 VRB7      30.20R
KIRKSVILLE     SUNNY     69  45  41 NW9G21    30.17R

$$
MOZ066>068-077>081-088>096-101>105-241600-
...SOUTHWEST MISSOURI...

CITY           SKY/WX    TMP DP  RH WIND       PRES   REMARKS
SPRINGFIELD    MOSUNNY   72  56  57 N7        30.20R
JOPLIN         MOSUNNY   74  59  59 CALM      30.22R
BRANSON        PTSUNNY   70  57  64 CALM      30.22R

$$
MOZ032>034-039>042-045>050-055>058-069>072-241600-
...CENTRAL MISSOURI...

CITY           SKY/WX    TMP DP  RH WIND       PRES   REMARKS
COLUMBIA       SUNNY     71  52  50 NW15      30.17R
JEFFERSON CITY SUNNY     73  49  42 NW9       30.16R
ROLLA          MOSUNNY   69  54  58 NW8       30.16R
SEDALIA        SUNNY     73  51  46 N15G21    30.21R
WARRENSBURG    SUNNY     70  45  40 NW9       30.22R
OSAGE BEACH    MOSUNNY   72  53  51 VRB7      30.19R

$$
MOZ051-052-059>065-241600-
...EAST CENTRAL MISSOURI...

CITY           SKY/WX    TMP DP  RH WIND       PRES   REMARKS
ST LOUIS INTL  MOSUNNY   74  47  38 NW15G25   30.12R
SPIRIT OF STL  MOSUNNY   73  48  41 NW15      30.12R
ST CHARLES     SUNNY     72  48  42 NW18G25   30.11R

$$
MOZ072>076-082>087-097>100-106>115-241600-
...SOUTH CENTRAL AND SOUTHEAST MISSOURI...

CITY           SKY/WX    TMP DP  RH WIND       PRES   REMARKS
CAPE GIRARDEAU SUNNY     75  57  53 NW9       30.10R
FARMINGTON     SUNNY     70  55  59 N7        30.15R
POPLAR BLUFF   MOSUNNY   75  60  59 N9        30.11R
WEST PLAINS    MOSUNNY   73  55  53 N9        30.19R

$$



USA.gov is the U.S. government's official web portal to all federal, state and local government web resources and services.